Year,Month,Day,Hour,Minute,Value (Times are PST for temperature in C)
2015,05,29,00,00,16.90
2015,05,29,00,01,16.90
2015,05,29,00,02,16.90
2015,05,29,00,03,16.90
2015,05,29,00,04,16.90
2015,05,29,00,05,16.90
2015,05,29,00,06,16.90
2015,05,29,00,07,16.80
2015,05,29,00,08,16.80
2015,05,29,00,09,16.70
2015,05,29,00,10,16.70
2015,05,29,00,11,16.70
2015,05,29,00,12,16.70
2015,05,29,00,13,16.70
2015,05,29,00,14,16.70
2015,05,29,00,15,16.70
2015,05,29,00,16,16.70
2015,05,29,00,17,16.80
2015,05,29,00,18,16.80
2015,05,29,00,19,16.80
2015,05,29,00,20,16.90
2015,05,29,00,21,16.90
2015,05,29,00,22,16.80
2015,05,29,00,23,16.80
2015,05,29,00,24,16.80
2015,05,29,00,25,16.90
2015,05,29,00,26,16.80
2015,05,29,00,27,16.80
2015,05,29,00,28,16.80
2015,05,29,00,29,16.80
2015,05,29,00,30,16.80
2015,05,29,00,31,16.80
2015,05,29,00,32,16.80
2015,05,29,00,33,16.80
2015,05,29,00,34,16.80
2015,05,29,00,35,16.80
2015,05,29,00,36,16.80
2015,05,29,00,37,16.80
2015,05,29,00,38,16.70
2015,05,29,00,39,16.70
2015,05,29,00,40,16.70
2015,05,29,00,41,16.60
2015,05,29,00,42,16.60
2015,05,29,00,43,16.60
2015,05,29,00,44,16.50
2015,05,29,00,45,16.50
2015,05,29,00,46,16.40
2015,05,29,00,47,16.30
2015,05,29,00,48,16.30
2015,05,29,00,49,16.20
2015,05,29,00,50,16.20
2015,05,29,00,51,16.10
2015,05,29,00,52,16.10
2015,05,29,00,53,16.00
2015,05,29,00,54,16.00
2015,05,29,00,55,15.90
2015,05,29,00,56,15.90
2015,05,29,00,57,15.80
2015,05,29,00,58,15.80
2015,05,29,00,59,15.70
2015,05,29,01,00,15.70
2015,05,29,01,01,15.70
2015,05,29,01,02,15.60
2015,05,29,01,03,15.60
2015,05,29,01,04,15.60
2015,05,29,01,05,15.50
2015,05,29,01,06,15.50
2015,05,29,01,07,15.40
2015,05,29,01,08,15.40
2015,05,29,01,09,15.40
2015,05,29,01,10,15.30
2015,05,29,01,11,15.30
2015,05,29,01,12,15.20
2015,05,29,01,13,15.20
2015,05,29,01,14,15.20
2015,05,29,01,15,15.10
2015,05,29,01,16,15.10
2015,05,29,01,17,15.00
2015,05,29,01,18,15.00
2015,05,29,01,19,14.90
2015,05,29,01,20,14.90
2015,05,29,01,21,14.90
2015,05,29,01,22,14.80
2015,05,29,01,23,14.80
2015,05,29,01,24,14.80
2015,05,29,01,25,14.70
2015,05,29,01,26,14.70
2015,05,29,01,27,14.70
2015,05,29,01,28,14.60
2015,05,29,01,29,14.60
2015,05,29,01,30,14.60
2015,05,29,01,31,14.50
2015,05,29,01,32,14.50
2015,05,29,01,33,14.50
2015,05,29,01,34,14.40
2015,05,29,01,35,14.40
2015,05,29,01,36,14.40
2015,05,29,01,37,14.30
2015,05,29,01,38,14.30
2015,05,29,01,39,14.20
2015,05,29,01,40,14.20
2015,05,29,01,41,14.20
2015,05,29,01,42,14.10
2015,05,29,01,43,14.10
2015,05,29,01,44,14.10
2015,05,29,01,45,14.10
2015,05,29,01,46,14.00
2015,05,29,01,47,14.00
2015,05,29,01,48,14.00
2015,05,29,01,49,14.00
2015,05,29,01,50,13.90
2015,05,29,01,51,13.90
2015,05,29,01,52,13.90
2015,05,29,01,53,13.90
2015,05,29,01,54,13.80
2015,05,29,01,55,13.80
2015,05,29,01,56,13.80
2015,05,29,01,57,13.80
2015,05,29,01,58,13.80
2015,05,29,01,59,13.70
2015,05,29,02,00,13.70
2015,05,29,02,01,13.70
2015,05,29,02,02,13.70
2015,05,29,02,03,13.70
2015,05,29,02,04,13.60
2015,05,29,02,05,13.60
2015,05,29,02,06,13.60
2015,05,29,02,07,13.60
2015,05,29,02,08,13.50
2015,05,29,02,09,13.50
2015,05,29,02,10,13.50
2015,05,29,02,11,13.50
2015,05,29,02,12,13.40
2015,05,29,02,13,13.40
2015,05,29,02,14,13.40
2015,05,29,02,15,13.40
2015,05,29,02,16,13.40
2015,05,29,02,17,13.40
2015,05,29,02,18,13.40
2015,05,29,02,19,13.40
2015,05,29,02,20,13.40
2015,05,29,02,21,13.40
2015,05,29,02,22,13.30
2015,05,29,02,23,13.30
2015,05,29,02,24,13.30
2015,05,29,02,25,13.30
2015,05,29,02,26,13.30
2015,05,29,02,27,13.20
2015,05,29,02,28,13.20
2015,05,29,02,29,13.20
2015,05,29,02,30,13.30
2015,05,29,02,31,13.30
2015,05,29,02,32,13.30
2015,05,29,02,33,13.30
2015,05,29,02,34,13.40
2015,05,29,02,35,13.40
2015,05,29,02,36,13.40
2015,05,29,02,37,13.40
2015,05,29,02,38,13.40
2015,05,29,02,39,13.40
2015,05,29,02,40,13.40
2015,05,29,02,41,13.40
2015,05,29,02,42,13.30
2015,05,29,02,43,13.30
2015,05,29,02,44,13.40
2015,05,29,02,45,13.50
2015,05,29,02,46,13.50
2015,05,29,02,47,13.60
2015,05,29,02,48,13.60
2015,05,29,02,49,13.70
2015,05,29,02,50,13.70
2015,05,29,02,51,13.70
2015,05,29,02,52,13.70
2015,05,29,02,53,13.70
2015,05,29,02,54,13.70
2015,05,29,02,55,13.60
2015,05,29,02,56,13.60
2015,05,29,02,57,13.60
2015,05,29,02,58,13.50
2015,05,29,02,59,13.50
2015,05,29,03,00,13.60
2015,05,29,03,01,13.60
2015,05,29,03,02,13.70
2015,05,29,03,03,13.70
2015,05,29,03,04,13.70
2015,05,29,03,05,13.80
2015,05,29,03,06,13.80
2015,05,29,03,07,13.80
2015,05,29,03,08,13.80
2015,05,29,03,09,13.90
2015,05,29,03,10,13.90
2015,05,29,03,11,13.90
2015,05,29,03,12,13.90
2015,05,29,03,13,13.90
2015,05,29,03,14,14.00
2015,05,29,03,15,14.00
2015,05,29,03,16,13.90
2015,05,29,03,17,13.90
2015,05,29,03,18,13.90
2015,05,29,03,19,13.90
2015,05,29,03,20,13.80
2015,05,29,03,21,13.80
2015,05,29,03,22,13.70
2015,05,29,03,23,13.70
2015,05,29,03,24,13.60
2015,05,29,03,25,13.60
2015,05,29,03,26,13.60
2015,05,29,03,27,13.50
2015,05,29,03,28,13.50
2015,05,29,03,29,13.40
2015,05,29,03,30,13.40
2015,05,29,03,31,13.40
2015,05,29,03,32,13.40
2015,05,29,03,33,13.50
2015,05,29,03,34,13.60
2015,05,29,03,35,13.60
2015,05,29,03,36,13.70
2015,05,29,03,37,13.70
2015,05,29,03,38,13.80
2015,05,29,03,39,13.80
2015,05,29,03,40,13.80
2015,05,29,03,41,13.80
2015,05,29,03,42,13.80
2015,05,29,03,43,13.80
2015,05,29,03,44,13.80
2015,05,29,03,45,13.90
2015,05,29,03,46,13.90
2015,05,29,03,47,13.90
2015,05,29,03,48,13.90
2015,05,29,03,49,13.90
2015,05,29,03,50,14.00
2015,05,29,03,51,13.90
2015,05,29,03,52,13.90
2015,05,29,03,53,13.90
2015,05,29,03,54,13.90
2015,05,29,03,55,13.90
2015,05,29,03,56,13.90
2015,05,29,03,57,13.80
2015,05,29,03,58,13.80
2015,05,29,03,59,13.80
2015,05,29,04,00,13.80
2015,05,29,04,01,13.70
2015,05,29,04,02,13.70
2015,05,29,04,03,13.70
2015,05,29,04,04,13.70
2015,05,29,04,05,13.70
2015,05,29,04,06,13.60
2015,05,29,04,07,13.60
2015,05,29,04,08,13.60
2015,05,29,04,09,13.60
2015,05,29,04,10,13.60
2015,05,29,04,11,13.60
2015,05,29,04,12,13.60
2015,05,29,04,13,13.60
2015,05,29,04,14,13.50
2015,05,29,04,15,13.50
2015,05,29,04,16,13.50
2015,05,29,04,17,13.40
2015,05,29,04,18,13.40
2015,05,29,04,19,13.40
2015,05,29,04,20,13.40
2015,05,29,04,21,13.40
2015,05,29,04,22,13.30
2015,05,29,04,23,13.30
2015,05,29,04,24,13.30
2015,05,29,04,25,13.30
2015,05,29,04,26,13.30
2015,05,29,04,27,13.30
2015,05,29,04,28,13.30
2015,05,29,04,29,13.30
2015,05,29,04,30,13.20
2015,05,29,04,31,13.20
2015,05,29,04,32,13.20
2015,05,29,04,33,13.20
2015,05,29,04,34,13.20
2015,05,29,04,35,13.10
2015,05,29,04,36,13.10
2015,05,29,04,37,13.10
2015,05,29,04,38,13.10
2015,05,29,04,39,13.00
2015,05,29,04,40,13.00
2015,05,29,04,41,13.00
2015,05,29,04,42,12.90
2015,05,29,04,43,12.80
2015,05,29,04,44,12.80
2015,05,29,04,45,12.70
2015,05,29,04,46,12.70
2015,05,29,04,47,12.60
2015,05,29,04,48,12.50
2015,05,29,04,49,12.40
2015,05,29,04,50,12.30
2015,05,29,04,51,12.30
2015,05,29,04,52,12.20
2015,05,29,04,53,12.20
2015,05,29,04,54,12.20
2015,05,29,04,55,12.10
2015,05,29,04,56,12.10
2015,05,29,04,57,12.10
2015,05,29,04,58,12.10
2015,05,29,04,59,12.00
2015,05,29,05,00,12.00
2015,05,29,05,01,12.00
2015,05,29,05,02,11.90
2015,05,29,05,03,11.90
2015,05,29,05,04,11.80
2015,05,29,05,05,11.80
2015,05,29,05,06,11.80
2015,05,29,05,07,11.70
2015,05,29,05,08,11.70
2015,05,29,05,09,11.70
2015,05,29,05,10,11.60
2015,05,29,05,11,11.60
2015,05,29,05,12,11.50
2015,05,29,05,13,11.50
2015,05,29,05,14,11.40
2015,05,29,05,15,11.40
2015,05,29,05,16,11.40
2015,05,29,05,17,11.40
2015,05,29,05,18,11.40
2015,05,29,05,19,11.40
2015,05,29,05,20,11.40
2015,05,29,05,21,11.30
2015,05,29,05,22,11.30
2015,05,29,05,23,11.30
2015,05,29,05,24,11.20
2015,05,29,05,25,11.30
2015,05,29,05,26,11.30
2015,05,29,05,27,11.30
2015,05,29,05,28,11.30
2015,05,29,05,29,11.40
2015,05,29,05,30,11.50
2015,05,29,05,31,11.50
2015,05,29,05,32,11.60
2015,05,29,05,33,11.70
2015,05,29,05,34,11.70
2015,05,29,05,35,11.80
2015,05,29,05,36,11.80
2015,05,29,05,37,11.90
2015,05,29,05,38,12.00
2015,05,29,05,39,12.10
2015,05,29,05,40,12.20
2015,05,29,05,41,12.30
2015,05,29,05,42,12.30
2015,05,29,05,43,12.30
2015,05,29,05,44,12.30
2015,05,29,05,45,12.30
2015,05,29,05,46,12.30
2015,05,29,05,47,12.30
2015,05,29,05,48,12.30
2015,05,29,05,49,12.30
2015,05,29,05,50,12.30
2015,05,29,05,51,12.30
2015,05,29,05,52,12.30
2015,05,29,05,53,12.30
2015,05,29,05,54,12.30
2015,05,29,05,55,12.20
2015,05,29,05,56,12.20
2015,05,29,05,57,12.20
2015,05,29,05,58,12.20
2015,05,29,05,59,12.20
2015,05,29,06,00,12.30
2015,05,29,06,01,12.30
2015,05,29,06,02,12.30
2015,05,29,06,03,12.30
2015,05,29,06,04,12.30
2015,05,29,06,05,12.30
2015,05,29,06,06,12.30
2015,05,29,06,07,12.30
2015,05,29,06,08,12.30
2015,05,29,06,09,12.30
2015,05,29,06,10,12.30
2015,05,29,06,11,12.40
2015,05,29,06,12,12.40
2015,05,29,06,13,12.40
2015,05,29,06,14,12.40
2015,05,29,06,15,12.40
2015,05,29,06,16,12.50
2015,05,29,06,17,12.50
2015,05,29,06,18,12.60
2015,05,29,06,19,12.60
2015,05,29,06,20,12.60
2015,05,29,06,21,12.60
2015,05,29,06,22,12.70
2015,05,29,06,23,12.70
2015,05,29,06,24,12.70
2015,05,29,06,25,12.70
2015,05,29,06,26,12.70
2015,05,29,06,27,12.70
2015,05,29,06,28,12.70
2015,05,29,06,29,12.70
2015,05,29,06,30,12.70
2015,05,29,06,31,12.80
2015,05,29,06,32,12.80
2015,05,29,06,33,12.80
2015,05,29,06,34,12.80
2015,05,29,06,35,12.90
2015,05,29,06,36,12.90
2015,05,29,06,37,12.90
2015,05,29,06,38,13.00
2015,05,29,06,39,13.00
2015,05,29,06,40,13.10
2015,05,29,06,41,13.10
2015,05,29,06,42,13.20
2015,05,29,06,43,13.20
2015,05,29,06,44,13.30
2015,05,29,06,45,13.40
2015,05,29,06,46,13.40
2015,05,29,06,47,13.50
2015,05,29,06,48,13.50
2015,05,29,06,49,13.60
2015,05,29,06,50,13.60
2015,05,29,06,51,13.70
2015,05,29,06,52,13.70
2015,05,29,06,53,13.80
2015,05,29,06,54,13.80
2015,05,29,06,55,13.80
2015,05,29,06,56,13.90
2015,05,29,06,57,13.90
2015,05,29,06,58,13.90
2015,05,29,06,59,13.90
2015,05,29,07,00,14.00
2015,05,29,07,01,14.00
2015,05,29,07,02,14.10
2015,05,29,07,03,14.10
2015,05,29,07,04,14.10
2015,05,29,07,05,14.10
2015,05,29,07,06,14.10
2015,05,29,07,07,14.10
2015,05,29,07,08,14.10
2015,05,29,07,09,14.10
2015,05,29,07,10,14.20
2015,05,29,07,11,14.20
2015,05,29,07,12,14.20
2015,05,29,07,13,14.20
2015,05,29,07,14,14.20
2015,05,29,07,15,14.20
2015,05,29,07,16,14.20
2015,05,29,07,17,14.20
2015,05,29,07,18,14.20
2015,05,29,07,19,14.20
2015,05,29,07,20,14.20
2015,05,29,07,21,14.20
2015,05,29,07,22,14.20
2015,05,29,07,23,14.20
2015,05,29,07,24,14.20
2015,05,29,07,25,14.20
2015,05,29,07,26,14.20
2015,05,29,07,27,14.20
2015,05,29,07,28,14.20
2015,05,29,07,29,14.20
2015,05,29,07,30,14.20
2015,05,29,07,31,14.20
2015,05,29,07,32,14.20
2015,05,29,07,33,14.20
2015,05,29,07,34,14.20
2015,05,29,07,35,14.20
2015,05,29,07,36,14.30
2015,05,29,07,37,14.30
2015,05,29,07,38,14.30
2015,05,29,07,39,14.30
2015,05,29,07,40,14.40
2015,05,29,07,41,14.40
2015,05,29,07,42,14.40
2015,05,29,07,43,14.50
2015,05,29,07,44,14.50
2015,05,29,07,45,14.60
2015,05,29,07,46,14.60
2015,05,29,07,47,14.70
2015,05,29,07,48,14.70
2015,05,29,07,49,14.80
2015,05,29,07,50,14.80
2015,05,29,07,51,14.80
2015,05,29,07,52,14.80
2015,05,29,07,53,14.80
2015,05,29,07,54,14.90
2015,05,29,07,55,14.90
2015,05,29,07,56,14.90
2015,05,29,07,57,14.90
2015,05,29,07,58,14.90
2015,05,29,07,59,14.90
2015,05,29,08,00,14.90
2015,05,29,08,01,14.90
2015,05,29,08,02,15.00
2015,05,29,08,03,15.00
2015,05,29,08,04,15.10
2015,05,29,08,05,15.10
2015,05,29,08,06,15.10
2015,05,29,08,07,15.10
2015,05,29,08,08,15.10
2015,05,29,08,09,15.20
2015,05,29,08,10,15.20
2015,05,29,08,11,15.20
2015,05,29,08,12,15.20
2015,05,29,08,13,15.20
2015,05,29,08,14,15.20
2015,05,29,08,15,15.20
2015,05,29,08,16,15.20
2015,05,29,08,17,15.20
2015,05,29,08,18,15.20
2015,05,29,08,19,15.20
2015,05,29,08,20,15.20
2015,05,29,08,21,15.30
2015,05,29,08,22,15.30
2015,05,29,08,23,15.30
2015,05,29,08,24,15.30
2015,05,29,08,25,15.30
2015,05,29,08,26,15.30
2015,05,29,08,27,15.40
2015,05,29,08,28,15.50
2015,05,29,08,29,15.50
2015,05,29,08,30,15.60
2015,05,29,08,31,15.70
2015,05,29,08,32,15.80
2015,05,29,08,33,15.80
2015,05,29,08,34,15.90
2015,05,29,08,35,15.90
2015,05,29,08,36,15.80
2015,05,29,08,37,15.80
2015,05,29,08,38,15.80
2015,05,29,08,39,15.80
2015,05,29,08,40,15.80
2015,05,29,08,41,15.90
2015,05,29,08,42,15.90
2015,05,29,08,43,15.90
2015,05,29,08,44,16.00
2015,05,29,08,45,16.10
2015,05,29,08,46,16.10
2015,05,29,08,47,16.20
2015,05,29,08,48,16.20
2015,05,29,08,49,16.20
2015,05,29,08,50,16.20
2015,05,29,08,51,16.20
2015,05,29,08,52,16.20
2015,05,29,08,53,16.30
2015,05,29,08,54,16.30
2015,05,29,08,55,16.30
2015,05,29,08,56,16.30
2015,05,29,08,57,16.30
2015,05,29,08,58,16.30
2015,05,29,08,59,16.30
2015,05,29,09,00,16.30
2015,05,29,09,01,16.30
2015,05,29,09,02,16.40
2015,05,29,09,03,16.50
2015,05,29,09,04,16.50
2015,05,29,09,05,16.60
2015,05,29,09,06,16.70
2015,05,29,09,07,16.70
2015,05,29,09,08,16.80
2015,05,29,09,09,16.80
2015,05,29,09,10,16.80
2015,05,29,09,11,16.90
2015,05,29,09,12,16.90
2015,05,29,09,13,16.90
2015,05,29,09,14,16.90
2015,05,29,09,15,16.90
2015,05,29,09,16,16.90
2015,05,29,09,17,16.90
2015,05,29,09,18,16.80
2015,05,29,09,19,16.80
2015,05,29,09,20,16.80
2015,05,29,09,21,16.70
2015,05,29,09,22,16.70
2015,05,29,09,23,16.70
2015,05,29,09,24,16.70
2015,05,29,09,25,16.80
2015,05,29,09,26,16.80
2015,05,29,09,27,16.80
2015,05,29,09,28,16.90
2015,05,29,09,29,16.90
2015,05,29,09,30,16.90
2015,05,29,09,31,16.90
2015,05,29,09,32,16.90
2015,05,29,09,33,16.90
2015,05,29,09,34,17.00
2015,05,29,09,35,17.10
2015,05,29,09,36,17.10
2015,05,29,09,37,17.20
2015,05,29,09,38,17.20
2015,05,29,09,39,17.20
2015,05,29,09,40,17.20
2015,05,29,09,41,17.10
2015,05,29,09,42,17.10
2015,05,29,09,43,17.20
2015,05,29,09,44,17.10
2015,05,29,09,45,17.10
2015,05,29,09,46,17.10
2015,05,29,09,47,17.10
2015,05,29,09,48,17.00
2015,05,29,09,49,17.00
2015,05,29,09,50,17.00
2015,05,29,09,51,17.00
2015,05,29,09,52,16.90
2015,05,29,09,53,16.90
2015,05,29,09,54,16.90
2015,05,29,09,55,16.90
2015,05,29,09,56,16.90
2015,05,29,09,57,16.90
2015,05,29,09,58,17.00
2015,05,29,09,59,17.10
2015,05,29,10,00,17.20
2015,05,29,10,01,17.40
2015,05,29,10,02,17.50
2015,05,29,10,03,17.60
2015,05,29,10,04,17.70
2015,05,29,10,05,17.70
2015,05,29,10,06,17.70
2015,05,29,10,07,17.60
2015,05,29,10,08,17.50
2015,05,29,10,09,17.40
2015,05,29,10,10,17.40
2015,05,29,10,11,17.40
2015,05,29,10,12,17.40
2015,05,29,10,13,17.40
2015,05,29,10,14,17.40
2015,05,29,10,15,17.30
2015,05,29,10,16,17.30
2015,05,29,10,17,17.30
2015,05,29,10,18,17.20
2015,05,29,10,19,17.20
2015,05,29,10,20,17.30
2015,05,29,10,21,17.30
2015,05,29,10,22,17.30
2015,05,29,10,23,17.30
2015,05,29,10,24,17.40
2015,05,29,10,25,17.40
2015,05,29,10,26,17.50
2015,05,29,10,27,17.40
2015,05,29,10,28,17.40
2015,05,29,10,29,17.20
2015,05,29,10,30,17.20
2015,05,29,10,31,17.20
2015,05,29,10,32,17.20
2015,05,29,10,33,17.20
2015,05,29,10,34,17.30
2015,05,29,10,35,17.30
2015,05,29,10,36,17.40
2015,05,29,10,37,17.40
2015,05,29,10,38,17.50
2015,05,29,10,39,17.40
2015,05,29,10,40,17.40
2015,05,29,10,41,17.40
2015,05,29,10,42,17.30
2015,05,29,10,43,17.10
2015,05,29,10,44,17.00
2015,05,29,10,45,16.90
2015,05,29,10,46,16.90
2015,05,29,10,47,16.80
2015,05,29,10,48,16.90
2015,05,29,10,49,16.80
2015,05,29,10,50,16.90
2015,05,29,10,51,16.90
2015,05,29,10,52,16.90
2015,05,29,10,53,17.00
2015,05,29,10,54,17.00
2015,05,29,10,55,17.10
2015,05,29,10,56,17.10
2015,05,29,10,57,17.10
2015,05,29,10,58,17.00
2015,05,29,10,59,17.00
2015,05,29,11,00,17.00
2015,05,29,11,01,17.00
2015,05,29,11,02,17.10
2015,05,29,11,03,17.10
2015,05,29,11,04,17.20
2015,05,29,11,05,17.20
2015,05,29,11,06,17.20
2015,05,29,11,07,17.20
2015,05,29,11,08,17.30
2015,05,29,11,09,17.30
2015,05,29,11,10,17.40
2015,05,29,11,11,17.40
2015,05,29,11,12,17.40
2015,05,29,11,13,17.40
2015,05,29,11,14,17.50
2015,05,29,11,15,17.60
2015,05,29,11,16,17.70
2015,05,29,11,17,17.80
2015,05,29,11,18,17.80
2015,05,29,11,19,17.80
2015,05,29,11,20,17.80
2015,05,29,11,21,17.80
2015,05,29,11,22,17.80
2015,05,29,11,23,17.80
2015,05,29,11,24,17.70
2015,05,29,11,25,17.70
2015,05,29,11,26,17.70
2015,05,29,11,27,17.80
2015,05,29,11,28,17.80
2015,05,29,11,29,17.80
2015,05,29,11,30,17.80
2015,05,29,11,31,17.90
2015,05,29,11,32,17.90
2015,05,29,11,33,17.90
2015,05,29,11,34,18.00
2015,05,29,11,35,18.00
2015,05,29,11,36,18.10
2015,05,29,11,37,18.10
2015,05,29,11,38,18.10
2015,05,29,11,39,18.10
2015,05,29,11,40,18.10
2015,05,29,11,41,18.10
2015,05,29,11,42,18.00
2015,05,29,11,43,17.90
2015,05,29,11,44,17.90
2015,05,29,11,45,17.90
2015,05,29,11,46,17.90
2015,05,29,11,47,18.00
2015,05,29,11,48,18.10
2015,05,29,11,49,18.10
2015,05,29,11,50,18.20
2015,05,29,11,51,18.20
2015,05,29,11,52,18.20
2015,05,29,11,53,18.30
2015,05,29,11,54,18.30
2015,05,29,11,55,18.30
2015,05,29,11,56,18.40
2015,05,29,11,57,18.40
2015,05,29,11,58,18.50
2015,05,29,11,59,18.40
2015,05,29,12,00,18.40
2015,05,29,12,01,18.50
2015,05,29,12,02,18.60
2015,05,29,12,03,18.70
2015,05,29,12,04,18.80
2015,05,29,12,05,18.80
2015,05,29,12,06,18.80
2015,05,29,12,07,18.80
2015,05,29,12,08,18.80
2015,05,29,12,09,18.80
2015,05,29,12,10,18.80
2015,05,29,12,11,18.70
2015,05,29,12,12,18.70
2015,05,29,12,13,18.70
2015,05,29,12,14,18.70
2015,05,29,12,15,18.80
2015,05,29,12,16,18.90
2015,05,29,12,17,19.00
2015,05,29,12,18,19.10
2015,05,29,12,19,19.20
2015,05,29,12,20,19.10
2015,05,29,12,21,19.10
2015,05,29,12,22,19.00
2015,05,29,12,23,19.00
2015,05,29,12,24,18.90
2015,05,29,12,25,18.90
2015,05,29,12,26,19.00
2015,05,29,12,27,19.00
2015,05,29,12,28,19.00
2015,05,29,12,29,19.10
2015,05,29,12,30,19.00
2015,05,29,12,31,19.00
2015,05,29,12,32,19.10
2015,05,29,12,33,19.20
2015,05,29,12,34,19.30
2015,05,29,12,35,19.40
2015,05,29,12,36,19.40
2015,05,29,12,37,19.50
2015,05,29,12,38,19.50
2015,05,29,12,39,19.60
2015,05,29,12,40,19.60
2015,05,29,12,41,19.60
2015,05,29,12,42,19.60
2015,05,29,12,43,19.60
2015,05,29,12,44,19.60
2015,05,29,12,45,19.60
2015,05,29,12,46,19.60
2015,05,29,12,47,19.60
2015,05,29,12,48,19.70
2015,05,29,12,49,19.70
2015,05,29,12,50,19.80
2015,05,29,12,51,19.90
2015,05,29,12,52,19.90
2015,05,29,12,53,19.90
2015,05,29,12,54,19.80
2015,05,29,12,55,19.80
2015,05,29,12,56,19.90
2015,05,29,12,57,19.90
2015,05,29,12,58,19.90
2015,05,29,12,59,20.00
2015,05,29,13,00,20.00
2015,05,29,13,01,20.10
2015,05,29,13,02,20.10
2015,05,29,13,03,20.10
2015,05,29,13,04,20.20
2015,05,29,13,05,20.10
2015,05,29,13,06,20.10
2015,05,29,13,07,20.10
2015,05,29,13,08,20.10
2015,05,29,13,09,20.10
2015,05,29,13,10,20.20
2015,05,29,13,11,20.30
2015,05,29,13,12,20.40
2015,05,29,13,13,20.50
2015,05,29,13,14,20.60
2015,05,29,13,15,20.70
2015,05,29,13,16,20.70
2015,05,29,13,17,20.70
2015,05,29,13,18,20.70
2015,05,29,13,19,20.70
2015,05,29,13,20,20.70
2015,05,29,13,21,20.70
2015,05,29,13,22,20.60
2015,05,29,13,23,20.50
2015,05,29,13,24,20.40
2015,05,29,13,25,20.40
2015,05,29,13,26,20.50
2015,05,29,13,27,20.60
2015,05,29,13,28,20.80
2015,05,29,13,29,20.90
2015,05,29,13,30,21.00
2015,05,29,13,31,21.10
2015,05,29,13,32,21.10
2015,05,29,13,33,21.10
2015,05,29,13,34,21.10
2015,05,29,13,35,21.10
2015,05,29,13,36,21.20
2015,05,29,13,37,21.20
2015,05,29,13,38,21.30
2015,05,29,13,39,21.30
2015,05,29,13,40,21.50
2015,05,29,13,41,21.60
2015,05,29,13,42,21.70
2015,05,29,13,43,21.70
2015,05,29,13,44,21.70
2015,05,29,13,45,21.70
2015,05,29,13,46,21.70
2015,05,29,13,47,21.80
2015,05,29,13,48,21.90
2015,05,29,13,49,22.00
2015,05,29,13,50,22.10
2015,05,29,13,51,22.10
2015,05,29,13,52,22.20
2015,05,29,13,53,22.20
2015,05,29,13,54,22.20
2015,05,29,13,55,22.20
2015,05,29,13,56,22.20
2015,05,29,13,57,22.30
2015,05,29,13,58,22.30
2015,05,29,13,59,22.30
2015,05,29,14,00,22.30
2015,05,29,14,01,22.20
2015,05,29,14,02,22.10
2015,05,29,14,03,22.00
2015,05,29,14,04,22.00
2015,05,29,14,05,22.00
2015,05,29,14,06,22.10
2015,05,29,14,07,22.20
2015,05,29,14,08,22.30
2015,05,29,14,09,22.40
2015,05,29,14,10,22.50
2015,05,29,14,11,22.70
2015,05,29,14,12,22.80
2015,05,29,14,13,22.80
2015,05,29,14,14,22.70
2015,05,29,14,15,22.70
2015,05,29,14,16,22.60
2015,05,29,14,17,22.50
2015,05,29,14,18,22.30
2015,05,29,14,19,22.20
2015,05,29,14,20,22.20
2015,05,29,14,21,22.20
2015,05,29,14,22,22.30
2015,05,29,14,23,22.30
2015,05,29,14,24,22.30
2015,05,29,14,25,22.20
2015,05,29,14,26,22.00
2015,05,29,14,27,22.00
2015,05,29,14,28,21.90
2015,05,29,14,29,22.00
2015,05,29,14,30,22.00
2015,05,29,14,31,22.10
2015,05,29,14,32,22.20
2015,05,29,14,33,22.20
2015,05,29,14,34,22.20
2015,05,29,14,35,22.20
2015,05,29,14,36,22.30
2015,05,29,14,37,22.30
2015,05,29,14,38,22.40
2015,05,29,14,39,22.50
2015,05,29,14,40,22.50
2015,05,29,14,41,22.30
2015,05,29,14,42,22.40
2015,05,29,14,43,22.40
2015,05,29,14,44,22.30
2015,05,29,14,45,22.20
2015,05,29,14,46,22.10
2015,05,29,14,47,22.10
2015,05,29,14,48,22.10
2015,05,29,14,49,22.00
2015,05,29,14,50,21.90
2015,05,29,14,51,21.80
2015,05,29,14,52,21.80
2015,05,29,14,53,21.80
2015,05,29,14,54,22.00
2015,05,29,14,55,22.10
2015,05,29,14,56,22.30
2015,05,29,14,57,22.30
2015,05,29,14,58,22.30
2015,05,29,14,59,22.30
2015,05,29,15,00,22.30
2015,05,29,15,01,22.40
2015,05,29,15,02,22.50
2015,05,29,15,03,22.60
2015,05,29,15,04,22.70
2015,05,29,15,05,22.90
2015,05,29,15,06,23.00
2015,05,29,15,07,23.10
2015,05,29,15,08,23.10
2015,05,29,15,09,23.10
2015,05,29,15,10,22.90
2015,05,29,15,11,22.70
2015,05,29,15,12,22.60
2015,05,29,15,13,22.50
2015,05,29,15,14,22.50
2015,05,29,15,15,22.50
2015,05,29,15,16,22.60
2015,05,29,15,17,22.70
2015,05,29,15,18,22.80
2015,05,29,15,19,22.90
2015,05,29,15,20,23.00
2015,05,29,15,21,23.10
2015,05,29,15,22,23.00
2015,05,29,15,23,22.80
2015,05,29,15,24,22.70
2015,05,29,15,25,22.60
2015,05,29,15,26,22.60
2015,05,29,15,27,22.60
2015,05,29,15,28,22.60
2015,05,29,15,29,22.60
2015,05,29,15,30,22.60
2015,05,29,15,31,22.60
2015,05,29,15,32,22.70
2015,05,29,15,33,22.70
2015,05,29,15,34,22.60
2015,05,29,15,35,22.60
2015,05,29,15,36,22.50
2015,05,29,15,37,22.50
2015,05,29,15,38,22.60
2015,05,29,15,39,22.50
2015,05,29,15,40,22.50
2015,05,29,15,41,22.40
2015,05,29,15,42,22.30
2015,05,29,15,43,22.30
2015,05,29,15,44,22.30
2015,05,29,15,45,22.30
2015,05,29,15,46,22.40
2015,05,29,15,47,22.40
2015,05,29,15,48,22.50
2015,05,29,15,49,22.60
2015,05,29,15,50,22.50
2015,05,29,15,51,22.50
2015,05,29,15,52,22.50
2015,05,29,15,53,22.40
2015,05,29,15,54,22.30
2015,05,29,15,55,22.30
2015,05,29,15,56,22.20
2015,05,29,15,57,22.10
2015,05,29,15,58,22.10
2015,05,29,15,59,22.10
2015,05,29,16,00,22.10
2015,05,29,16,01,22.00
2015,05,29,16,02,21.90
2015,05,29,16,03,21.90
2015,05,29,16,04,21.80
2015,05,29,16,05,21.80
2015,05,29,16,06,21.70
2015,05,29,16,07,21.70
2015,05,29,16,08,21.60
2015,05,29,16,09,21.50
2015,05,29,16,10,21.40
2015,05,29,16,11,21.40
2015,05,29,16,12,21.30
2015,05,29,16,13,21.40
2015,05,29,16,14,21.50
2015,05,29,16,15,21.70
2015,05,29,16,16,21.80
2015,05,29,16,17,22.00
2015,05,29,16,18,22.10
2015,05,29,16,19,22.30
2015,05,29,16,20,22.50
2015,05,29,16,21,22.70
2015,05,29,16,22,22.70
2015,05,29,16,23,22.70
2015,05,29,16,24,22.70
2015,05,29,16,25,22.70
2015,05,29,16,26,22.70
2015,05,29,16,27,22.70
2015,05,29,16,28,22.70
2015,05,29,16,29,22.70
2015,05,29,16,30,22.70
2015,05,29,16,31,22.60
2015,05,29,16,32,22.50
2015,05,29,16,33,22.40
2015,05,29,16,34,22.30
2015,05,29,16,35,22.20
2015,05,29,16,36,22.10
2015,05,29,16,37,22.10
2015,05,29,16,38,22.10
2015,05,29,16,39,22.10
2015,05,29,16,40,22.20
2015,05,29,16,41,22.20
2015,05,29,16,42,22.30
2015,05,29,16,43,22.50
2015,05,29,16,44,22.50
2015,05,29,16,45,22.50
2015,05,29,16,46,22.50
2015,05,29,16,47,22.40
2015,05,29,16,48,22.30
2015,05,29,16,49,22.20
2015,05,29,16,50,22.20
2015,05,29,16,51,22.20
2015,05,29,16,52,22.20
2015,05,29,16,53,22.30
2015,05,29,16,54,22.30
2015,05,29,16,55,22.30
2015,05,29,16,56,22.40
2015,05,29,16,57,22.40
2015,05,29,16,58,22.50
2015,05,29,16,59,22.60
2015,05,29,17,00,22.60
2015,05,29,17,01,22.70
2015,05,29,17,02,22.60
2015,05,29,17,03,22.60
2015,05,29,17,04,22.60
2015,05,29,17,05,22.60
2015,05,29,17,06,22.70
2015,05,29,17,07,22.80
2015,05,29,17,08,22.80
2015,05,29,17,09,22.80
2015,05,29,17,10,22.80
2015,05,29,17,11,22.80
2015,05,29,17,12,22.90
2015,05,29,17,13,22.90
2015,05,29,17,14,22.90
2015,05,29,17,15,22.80
2015,05,29,17,16,22.80
2015,05,29,17,17,22.70
2015,05,29,17,18,22.70
2015,05,29,17,19,22.80